Manhattan, KS

7:22 PM CST on February 24, 2017 (GMT -0600)
Manhattan Regional

Weather History for KMHK - February, 2014

Change the Weather History Date:

Thursday, February 20, 2014

  Actual Average Record
Temperature  
Mean Temperature 42 °F 34 °F  
Max Temperature 49 °F 47 °F 75 °F (2016)
Min Temperature 34 °F 22 °F 7 °F (2006)
Degree Days  
Heating Degree Days 23 31  
Month to date heating degree days 808 661  
Since 1 July heating degree days 4259 3927  
Cooling Degree Days 0 0  
Month to date cooling degree days 0 0  
Year to date cooling degree days 0 0  
Moisture  
Dew Point 34 °F    
Average Humidity 67    
Maximum Humidity 100    
Minimum Humidity 34    
Precipitation  
Precipitation 0.77 in 0.05 in 0.77 in (2014)
Month to date precipitation 0.91 0.75  
Year to date precipitation 1.22 1.40  
Sea Level Pressure  
Sea Level Pressure 29.58 in    
Wind  
Wind Speed 10 mph (NNW)    
Max Wind Speed 22 mph    
Max Gust Speed 37 mph    
Visibility 7 miles    
Events Rain , Snow    
T = Trace of Precipitation, MM = Missing Value Source: NWS Daily Summary

Daily Weather History Graph

Daily Weather History Graph

Search for Another Location

Airport or City:

Trip Planner

Search our weather history database for the weather conditions in past years. The results will help you decide how hot, cold, wet, or windy it might be!

Date:

Astronomy

Feb. 20, 2014 Rise Set
Actual Time 7:11 AM CST 6:09 PM CST
Civil Twilight 6:44 AM CST 6:36 PM CST
Nautical Twilight 6:13 AM CST 7:07 PM CST
Astronomical Twilight 5:42 AM CST 7:38 PM CST
Moon No Moon Rise 9:57 AM CST (2/20)
Length of Visible Light 11h 52m
Length of Day
10h 57m
Waning Gibbous, 70% of the Moon is Illuminated
Feb 20
Waning Gibbous
Feb 22
Last Quarter
Mar 1
New
Mar 8
First Quarter
Mar 16
Full

Hourly Weather History & Observations

Time (CST) Temp. Windchill Dew Point Humidity Pressure Visibility Wind Dir Wind Speed Gust Speed Precip Events Conditions
12:24 AM 44.1 °F 40.1 °F 36.0 °F 73% 29.52 in 10.0 mi NE 6.9 mph - N/A   Overcast
12:52 AM 44.1 °F 40.8 °F 36.0 °F 73% 29.50 in 10.0 mi ENE 5.8 mph - N/A   Overcast
1:52 AM 44.1 °F 41.5 °F 37.9 °F 79% 29.48 in 10.0 mi ENE 4.6 mph - N/A   Overcast
2:15 AM 44.1 °F 40.1 °F 37.9 °F 79% 29.46 in 10.0 mi NE 6.9 mph - N/A   Overcast
2:52 AM 44.1 °F 40.1 °F 39.0 °F 82% 29.44 in 10.0 mi NE 6.9 mph - N/A   Overcast
3:52 AM 43.0 °F 36.8 °F 39.9 °F 89% 29.38 in 3.0 mi NE 11.5 mph - 0.05 in Rain Heavy Rain
4:24 AM 43.0 °F 41.3 °F 42.1 °F 97% 29.40 in 2.0 mi Variable 3.5 mph - 0.08 in Rain Rain
4:39 AM 43.0 °F - 42.1 °F 97% 29.42 in 1.5 mi Calm Calm - 0.17 in Rain Heavy Rain
4:45 AM 43.0 °F - 42.1 °F 97% 29.41 in 2.0 mi Calm Calm - 0.18 in Rain Light Rain
4:52 AM 43.0 °F 40.3 °F 42.1 °F 97% 29.42 in 4.0 mi North 4.6 mph - 0.19 in Rain Light Rain
5:15 AM 43.0 °F 41.3 °F 43.0 °F 100% 29.44 in 1.8 mi North 3.5 mph - 0.07 in Rain Heavy Rain
5:25 AM 42.1 °F 39.2 °F 42.1 °F 100% 29.43 in 3.0 mi NE 4.6 mph - 0.09 in Rain Light Rain
5:52 AM 42.1 °F 37.1 °F 42.1 °F 100% 29.40 in 6.0 mi NE 8.1 mph - 0.09 in   Overcast
6:11 AM 42.1 °F 36.6 °F 42.1 °F 100% 29.36 in 5.0 mi NNE 9.2 mph - N/A   Mostly Cloudy
6:20 AM 42.1 °F 37.7 °F 42.1 °F 100% 29.41 in 6.0 mi NW 6.9 mph - N/A   Overcast
6:31 AM 41.0 °F 35.8 °F 41.0 °F 100% 29.42 in 7.0 mi North 8.1 mph - N/A   Overcast
6:39 AM 39.9 °F 33.4 °F 39.9 °F 100% 29.40 in 9.0 mi North 10.4 mph - N/A   Overcast
6:52 AM 39.0 °F 33.4 °F 39.0 °F 100% 29.42 in 10.0 mi North 8.1 mph 17.3 mph N/A   Overcast
7:34 AM 37.0 °F 31.6 °F 36.0 °F 96% 29.48 in 2.0 mi NW 6.9 mph - 0.16 in Rain Heavy Rain
7:49 AM 37.4 °F 32.1 °F 35.6 °F 93% 29.48 in 4.0 mi Variable 6.9 mph - 0.19 in Rain Light Rain
7:52 AM 37.0 °F 31.0 °F 36.0 °F 96% 29.49 in 4.0 mi North 8.1 mph - 0.19 in Rain Light Rain
8:02 AM 37.0 °F 31.0 °F 36.0 °F 96% 29.47 in 4.0 mi North 8.1 mph - 0.01 in Rain Light Rain
8:14 AM 37.0 °F 29.3 °F 36.0 °F 96% 29.44 in 6.0 mi North 11.5 mph 21.9 mph 0.01 in Rain Light Rain
8:27 AM 37.0 °F 29.3 °F 34.0 °F 89% 29.47 in 10.0 mi NNW 11.5 mph 20.7 mph 0.01 in   Overcast
8:52 AM 37.0 °F 28.9 °F 34.0 °F 89% 29.53 in 10.0 mi NNW 12.7 mph 27.6 mph 0.01 in   Overcast
9:02 AM 36.0 °F 26.7 °F 34.0 °F 93% 29.50 in 10.0 mi North 15.0 mph 28.8 mph 0.00 in Rain Light Rain
9:42 AM 36.0 °F 27.1 °F 34.0 °F 93% 29.56 in 3.0 mi NNW 13.8 mph 29.9 mph 0.03 in Rain Heavy Rain
9:46 AM 35.6 °F 28.6 °F 33.8 °F 93% 29.57 in 1.8 mi NNW 9.2 mph 25.3 mph 0.04 in Rain Heavy Rain
9:52 AM 35.1 °F 26.9 °F 33.1 °F 92% 29.61 in 1.0 mi NW 11.5 mph 24.2 mph 0.07 in Snow Light Snow
10:37 AM 34.0 °F 25.5 °F 33.1 °F 96% 29.62 in 0.8 mi NNW 11.5 mph 19.6 mph 0.11 in Snow Light Snow
10:52 AM 34.0 °F 25.0 °F 33.1 °F 96% 29.64 in 0.8 mi NNW 12.7 mph 20.7 mph 0.14 in Snow Light Snow
11:04 AM 34.0 °F 25.5 °F 33.1 °F 96% 29.63 in 2.0 mi NNW 11.5 mph 25.3 mph 0.02 in Snow Light Snow
11:07 AM 34.0 °F 25.5 °F 34.0 °F 100% 29.63 in 3.0 mi NNW 11.5 mph 21.9 mph 0.02 in Snow Light Snow
11:28 AM 35.1 °F 27.4 °F 34.0 °F 96% 29.64 in 6.0 mi NNW 10.4 mph 24.2 mph 0.02 in Snow Light Snow
11:40 AM 36.0 °F 28.5 °F 34.0 °F 93% 29.64 in 9.0 mi NNW 10.4 mph 21.9 mph 0.02 in   Overcast
11:52 AM 37.0 °F 28.5 °F 34.0 °F 89% 29.65 in 10.0 mi NNW 13.8 mph 26.5 mph 0.03 in Rain Light Rain
12:52 PM 39.9 °F 34.5 °F 35.1 °F 83% 29.70 in 10.0 mi WNW 8.1 mph 19.6 mph 0.00 in   Overcast
1:18 PM 44.1 °F 38.6 °F 34.0 °F 68% 29.69 in 10.0 mi WNW 10.4 mph 26.5 mph N/A   Overcast
1:52 PM 46.9 °F - 30.0 °F 52% 29.72 in 10.0 mi WNW 15.0 mph 27.6 mph N/A   Mostly Cloudy
2:52 PM 46.9 °F - 27.0 °F 46% 29.74 in 10.0 mi WNW 12.7 mph 24.2 mph N/A   Partly Cloudy
3:52 PM 48.9 °F - 21.9 °F 35% 29.77 in 10.0 mi WNW 11.5 mph 24.2 mph N/A   Clear
4:52 PM 46.9 °F - 21.9 °F 37% 29.78 in 10.0 mi West 16.1 mph 23.0 mph N/A   Mostly Cloudy
5:52 PM 44.1 °F 36.5 °F 21.9 °F 42% 29.83 in 10.0 mi WNW 17.3 mph 36.8 mph 0.00 in Rain Light Rain
6:52 PM 42.1 °F 34.9 °F 23.0 °F 47% 29.84 in 10.0 mi West 13.8 mph 24.2 mph 0.00 in   Partly Cloudy
7:52 PM 39.9 °F 32.1 °F 21.9 °F 49% 29.86 in 10.0 mi West 13.8 mph 24.2 mph N/A   Clear
8:52 PM 37.9 °F 30.9 °F 21.9 °F 53% 29.88 in 10.0 mi West 10.4 mph - N/A   Clear
9:52 PM 36.0 °F 29.6 °F 21.9 °F 57% 29.90 in 10.0 mi West 8.1 mph - N/A   Clear
10:52 PM 34.0 °F 29.8 °F 21.9 °F 61% 29.91 in 10.0 mi West 4.6 mph - N/A   Clear
11:52 PM 34.0 °F 27.2 °F 21.9 °F 61% 29.91 in 10.0 mi WSW 8.1 mph - N/A   Clear